C/2017 T3 ( ATLAS )

Japanese version
Home page
Updated on August 17, 2018

---------------------------------------------------------------------

* Profile

Discovery Date October 14, 2017
Magnitude 18.3 mag
Discoverer Asteroid Terrestrial-impact Last Alert System (ATLAS) search program

* Pictures

* Orbital Elements

Epoch 2018 July 21.0 TT = JDT 2458320.5
T 2018 July 19.15275 TT                                 MPCW
q   0.8254220            (2000.0)            P               Q
z  +0.0007156      Peri.  246.88281     +0.22863931     -0.60006765
 +/-0.0000015      Node   230.08494     +0.65979124     -0.48348495
e   0.9994093      Incl.   88.10867     -0.71582091     -0.63730771
From 523 observations 2017 Sept. 11-2018 Aug. 2, mean residual 0".6.

* Finding Charts

* Magnitudes Graph

        m1 = 9.0 + 5 log d + 10.0 log r

---------------------------------------------------------------------

The orbital elements are published on M.P.E.C. 2018-P85.
The charts are made with StellaNavigator Ver.10 (AstroArts).
The magnitudes graphs are made with Comet for Windows.

---------------------------------------------------------------------

Copyright(C) Seiichi Yoshida (comet@aerith.net). All rights reserved.